| time (UTC) | temp C | wind direction | speed KPH | gust KPH | rain 1hr cm | rain 24hr cm | rain mn cm | humidity % | barometer mb |
| 20260503232005 | 16 | 263 | 1.6 | 4.8 | 0.00 | 0.00 | 0.00 | 68 | 1035.4 |
| 20260503231505 | 16 | 272 | 3.2 | 4.8 | 0.00 | 0.00 | 0.00 | 68 | 1035.5 |
| 20260503225505 | 16 | 228 | 1.6 | 8.0 | 0.00 | 0.00 | 0.00 | 66 | 1035.4 |
| 20260503225005 | 16 | 269 | 3.2 | 8.0 | 0.00 | 0.00 | 0.00 | 67 | 1035.5 |
| 20260503224005 | 16 | 246 | 1.6 | 4.8 | 0.00 | 0.00 | 0.00 | 68 | 1035.4 |
| 20260503223506 | 16 | 115 | 1.6 | 4.8 | 0.00 | 0.00 | 0.00 | 68 | 1035.4 |
| 20260503223006 | 16 | 199 | 1.6 | 4.8 | 0.00 | 0.00 | 0.00 | 69 | 1035.4 |
| 20260503222506 | 16 | 185 | 3.2 | 4.8 | 0.00 | 0.00 | 0.00 | 68 | 1035.5 |
| 20260503221505 | 15 | 172 | 3.2 | 4.8 | 0.00 | 0.00 | 0.00 | 69 | 1035.5 |
| 20260503221006 | 15 | 187 | 1.6 | 8.0 | 0.00 | 0.00 | 0.00 | 71 | 1035.5 |
| 20260503215505 | 15 | 218 | 3.2 | 4.8 | 0.00 | 0.00 | 0.00 | 72 | 1035.5 |
| 20260503215005 | 15 | 190 | 0.0 | 9.7 | 0.00 | 0.00 | 0.00 | 75 | 1035.5 |
| 20260503214505 | 15 | 137 | 3.2 | 9.7 | 0.00 | 0.00 | 0.00 | 74 | 1035.5 |
| 20260503214005 | 15 | 204 | 1.6 | 4.8 | 0.00 | 0.00 | 0.00 | 80 | 1035.5 |
| 20260503213505 | 15 | 239 | 1.6 | 4.8 | 0.00 | 0.00 | 0.00 | 80 | 1035.5 |
| 20260503212005 | 13 | 152 | 1.6 | 4.8 | 0.00 | 0.00 | 0.00 | 82 | 1035.5 |
| 20260503211506 | 13 | 144 | 1.6 | 8.0 | 0.00 | 0.00 | 0.00 | 83 | 1035.5 |
| 20260503211006 | 13 | 126 | 1.6 | 8.0 | 0.00 | 0.00 | 0.00 | 84 | 1035.5 |
| 20260503210007 | 13 | 160 | 3.2 | 4.8 | 0.00 | 0.00 | 0.00 | 84 | 1035.5 |
| 20260503205506 | 13 | 154 | 1.6 | 4.8 | 0.00 | 0.00 | 0.00 | 85 | 1035.5 |
| 20260503205005 | 13 | 134 | 3.2 | 8.0 | 0.00 | 0.00 | 0.00 | 86 | 1035.5 |
| 20260503204005 | 12 | 137 | 3.2 | 8.0 | 0.00 | 0.00 | 0.00 | 88 | 1035.5 |
| 20260503203505 | 12 | 122 | 1.6 | 4.8 | 0.00 | 0.00 | 0.00 | 88 | 1035.5 |
| 20260503203005 | 12 | 151 | 1.6 | 4.8 | 0.00 | 0.00 | 0.00 | 89 | 1035.5 |
| 20260503202506 | 11 | 194 | 3.2 | 4.8 | 0.00 | 0.00 | 0.00 | 90 | 1035.5 |
| 20260503201505 | 11 | 139 | 1.6 | 4.8 | 0.00 | 0.00 | 0.00 | 90 | 1035.4 |
| 20260503201005 | 11 | 124 | 1.6 | 4.8 | 0.00 | 0.00 | 0.00 | 90 | 1035.4 |
| 20260503200005 | 11 | 110 | 1.6 | 4.8 | 0.00 | 0.00 | 0.00 | 91 | 1035.3 |
| 20260503195006 | 11 | 131 | 1.6 | 4.8 | 0.00 | 0.00 | 0.00 | 91 | 1035.1 |
| 20260503194505 | 11 | 130 | 1.6 | 3.2 | 0.00 | 0.00 | 0.00 | 91 | 1035.0 |
| 20260503193005 | 10 | 128 | 1.6 | 4.8 | 0.00 | 0.00 | 0.00 | 91 | 1035.0 |
| 20260503192505 | 10 | 147 | 1.6 | 4.8 | 0.00 | 0.00 | 0.00 | 91 | 1035.0 |
| 20260503190005 | 10 | 133 | 1.6 | 3.2 | 0.00 | 0.00 | 0.00 | 92 | 1034.5 |
| 20260503185505 | 10 | 165 | 1.6 | 3.2 | 0.00 | 0.00 | 0.00 | 92 | 1034.5 |
| 20260503185006 | 10 | 127 | 1.6 | 3.2 | 0.00 | 0.00 | 0.00 | 92 | 1034.5 |
| 20260503184005 | 10 | 77 | 0.0 | 3.2 | 0.00 | 0.00 | 0.00 | 92 | 1034.5 |
| 20260503183506 | 10 | 96 | 1.6 | 3.2 | 0.00 | 0.00 | 0.00 | 92 | 1034.5 |
| 20260503182505 | 11 | 79 | 1.6 | 3.2 | 0.00 | 0.00 | 0.00 | 92 | 1034.3 |
| 20260503182006 | 11 | 89 | 1.6 | 3.2 | 0.00 | 0.00 | 0.00 | 92 | 1034.3 |
| 20260503181006 | 11 | 106 | 0.0 | 3.2 | 0.00 | 0.00 | 0.00 | 92 | 1034.2 |
| 20260503175505 | 11 | 108 | 0.0 | 4.8 | 0.00 | 0.00 | 0.00 | 92 | 1034.0 |
| 20260503175005 | 11 | 97 | 1.6 | 3.2 | 0.00 | 0.00 | 0.00 | 91 | 1034.0 |
| 20260503174505 | 11 | 143 | 0.0 | 3.2 | 0.00 | 0.00 | 0.00 | 91 | 1034.0 |
| 20260503173005 | 11 | 144 | 1.6 | 8.0 | 0.00 | 0.00 | 0.00 | 92 | 1033.9 |
| 20260503172505 | 11 | 158 | 1.6 | 4.8 | 0.00 | 0.00 | 0.00 | 92 | 1033.9 |
| 20260503172005 | 11 | 136 | 1.6 | 4.8 | 0.00 | 0.00 | 0.00 | 92 | 1033.9 |
| 20260503171006 | 11 | 135 | 1.6 | 4.8 | 0.00 | 0.00 | 0.00 | 92 | 1034.0 |
| 20260503131005 | 9 | 142 | 0.0 | 0.0 | 0.00 | 0.00 | 0.00 | 92 | 1035.5 |
| 20260503081506 | 9 | 143 | 1.6 | 4.8 | 0.00 | 0.00 | 0.00 | 91 | 1034.0 |
| 20260503081006 | 9 | 148 | 1.6 | 3.2 | 0.00 | 0.00 | 0.00 | 90 | 1034.0 |
| 20260503072506 | 10 | 141 | 3.2 | 4.8 | 0.00 | 0.00 | 0.00 | 90 | 1033.9 |
| 20260503072005 | 10 | 145 | 1.6 | 3.2 | 0.00 | 0.00 | 0.00 | 90 | 1033.9 |
| 20260503071505 | 10 | 146 | 3.2 | 4.8 | 0.00 | 0.00 | 0.00 | 89 | 1033.9 |
| 20260503071006 | 10 | 148 | 1.6 | 4.8 | 0.00 | 0.00 | 0.00 | 89 | 1034.0 |
| 20260503055007 | 13 | 114 | 1.6 | 3.2 | 0.00 | 0.00 | 0.00 | 81 | 1033.4 |
| 20260503054506 | 13 | 106 | 1.6 | 1.6 | 0.00 | 0.00 | 0.00 | 81 | 1033.4 |
| 20260503054006 | 13 | 96 | 1.6 | 1.6 | 0.00 | 0.00 | 0.00 | 80 | 1033.4 |
| 20260503053506 | 14 | 25 | 0.0 | 0.0 | 0.00 | 0.00 | 0.00 | 78 | 1033.4 |
| 20260503052005 | 15 | 25 | 0.0 | 0.0 | 0.00 | 0.00 | 0.00 | 77 | 1033.2 |
| 20260503051505 | 15 | 25 | 0.0 | 1.6 | 0.00 | 0.00 | 0.00 | 76 | 1033.1 |
| 20260503051006 | 15 | 25 | 0.0 | 1.6 | 0.00 | 0.00 | 0.00 | 76 | 1033.2 |
| 20260503050006 | 15 | 18 | 0.0 | 4.8 | 0.00 | 0.00 | 0.00 | 75 | 1033.1 |
| 20260503045505 | 15 | 19 | 1.6 | 4.8 | 0.00 | 0.00 | 0.00 | 75 | 1033.0 |
| 20260503045005 | 16 | 10 | 1.6 | 4.8 | 0.00 | 0.00 | 0.00 | 74 | 1033.1 |
| 20260503044505 | 16 | 22 | 3.2 | 4.8 | 0.00 | 0.00 | 0.00 | 73 | 1033.1 |
| 20260503044005 | 16 | 52 | 1.6 | 4.8 | 0.00 | 0.00 | 0.00 | 74 | 1033.1 |
| 20260503043006 | 16 | 26 | 1.6 | 4.8 | 0.00 | 0.00 | 0.00 | 72 | 1033.1 |
| 20260503042506 | 16 | 43 | 1.6 | 4.8 | 0.00 | 0.00 | 0.00 | 72 | 1033.2 |
| 20260503042006 | 16 | 26 | 1.6 | 4.8 | 0.00 | 0.00 | 0.00 | 70 | 1033.3 |
| 20260503041505 | 16 | 26 | 1.6 | 4.8 | 0.00 | 0.00 | 0.00 | 71 | 1033.2 |
| 20260503041005 | 16 | 30 | 0.0 | 4.8 | 0.00 | 0.00 | 0.00 | 71 | 1033.3 |
| 20260503040006 | 17 | 11 | 3.2 | 4.8 | 0.00 | 0.00 | 0.00 | 70 | 1033.1 |
| 20260503035006 | 17 | 359 | 1.6 | 8.0 | 0.00 | 0.00 | 0.00 | 69 | 1033.0 |
| 20260503034506 | 17 | 67 | 1.6 | 9.7 | 0.00 | 0.00 | 0.00 | 69 | 1033.0 |
| 20260503034006 | 17 | 17 | 3.2 | 9.7 | 0.00 | 0.00 | 0.00 | 67 | 1033.0 |
| 20260503033006 | 17 | 6 | 3.2 | 8.0 | 0.00 | 0.00 | 0.00 | 68 | 1033.0 |
| 20260503032006 | 17 | 26 | 1.6 | 9.7 | 0.00 | 0.00 | 0.00 | 69 | 1033.1 |
| 20260503031505 | 17 | 35 | 3.2 | 9.7 | 0.00 | 0.00 | 0.00 | 67 | 1033.1 |
| 20260503030005 | 18 | 346 | 3.2 | 8.0 | 0.00 | 0.00 | 0.00 | 68 | 1033.2 |
| 20260503025005 | 18 | 4 | 3.2 | 8.0 | 0.00 | 0.00 | 0.00 | 68 | 1033.2 |
| 20260503024506 | 18 | 4 | 3.2 | 4.8 | 0.00 | 0.00 | 0.00 | 67 | 1033.2 |
| 20260503024005 | 18 | 339 | 1.6 | 4.8 | 0.00 | 0.00 | 0.00 | 68 | 1033.3 |
| 20260503023505 | 18 | 18 | 3.2 | 4.8 | 0.00 | 0.00 | 0.00 | 67 | 1033.3 |
| 20260503023006 | 18 | 341 | 3.2 | 4.8 | 0.00 | 0.00 | 0.00 | 68 | 1033.3 |
| 20260503022506 | 17 | 1 | 3.2 | 8.0 | 0.00 | 0.00 | 0.00 | 68 | 1033.3 |
| 20260503022006 | 17 | 350 | 3.2 | 8.0 | 0.00 | 0.00 | 0.00 | 69 | 1033.3 |
| 20260503021505 | 17 | 17 | 1.6 | 4.8 | 0.00 | 0.00 | 0.00 | 69 | 1033.4 |
| 20260503021006 | 17 | 17 | 0.0 | 4.8 | 0.00 | 0.00 | 0.00 | 72 | 1033.4 |
| 20260503020006 | 17 | 296 | 0.0 | 3.2 | 0.00 | 0.00 | 0.00 | 69 | 1033.4 |
| 20260503015505 | 17 | 284 | 1.6 | 3.2 | 0.00 | 0.00 | 0.00 | 69 | 1033.4 |
| 20260503014006 | 17 | 331 | 3.2 | 8.0 | 0.00 | 0.00 | 0.00 | 67 | 1033.5 |
| 20260503013505 | 17 | 330 | 1.6 | 4.8 | 0.00 | 0.00 | 0.00 | 68 | 1033.6 |
| 20260503013006 | 16 | 324 | 3.2 | 4.8 | 0.00 | 0.00 | 0.00 | 68 | 1033.7 |
| 20260503012005 | 17 | 329 | 3.2 | 4.8 | 0.00 | 0.00 | 0.00 | 67 | 1033.9 |
| 20260503011506 | 17 | 283 | 1.6 | 8.0 | 0.00 | 0.00 | 0.00 | 67 | 1033.9 |
| 20260503010005 | 17 | 308 | 3.2 | 11.3 | 0.00 | 0.00 | 0.00 | 64 | 1033.9 |
| 20260503005505 | 18 | 272 | 3.2 | 9.7 | 0.00 | 0.00 | 0.00 | 66 | 1034.0 |
| 20260503005005 | 17 | 268 | 3.2 | 9.7 | 0.00 | 0.00 | 0.00 | 65 | 1034.0 |
| 20260503004505 | 17 | 31 | 1.6 | 4.8 | 0.00 | 0.00 | 0.00 | 66 | 1034.2 |
| 20260503004005 | 17 | 38 | 3.2 | 8.0 | 0.00 | 0.00 | 0.00 | 64 | 1034.2 |
| 20260503003505 | 17 | 254 | 3.2 | 8.0 | 0.00 | 0.00 | 0.00 | 65 | 1034.3 |
| 20260503003005 | 17 | 336 | 3.2 | 9.7 | 0.00 | 0.00 | 0.00 | 65 | 1034.4 |
| 20260503002505 | 17 | 269 | 3.2 | 9.7 | 0.00 | 0.00 | 0.00 | 66 | 1034.4 |
| 20260503001505 | 17 | 268 | 3.2 | 8.0 | 0.00 | 0.00 | 0.00 | 68 | 1034.4 |
| 20260503001006 | 17 | 247 | 3.2 | 4.8 | 0.00 | 0.00 | 0.00 | 66 | 1034.5 |
| 20260503000005 | 17 | 239 | 1.6 | 4.8 | 0.00 | 0.00 | 0.00 | 68 | 1034.7 |
| 20260502234506 | 16 | 188 | 1.6 | 4.8 | 0.00 | 0.00 | 0.00 | 69 | 1034.9 |
| 20260502233506 | 16 | 184 | 3.2 | 4.8 | 0.00 | 0.00 | 0.00 | 71 | 1035.0 |
| 20260502233006 | 16 | 162 | 3.2 | 4.8 | 0.00 | 0.00 | 0.00 | 71 | 1035.0 |
| 20260502232505 | 16 | 158 | 1.6 | 4.8 | 0.00 | 0.00 | 0.00 | 71 | 1035.0 |